User: anonymous   Login
Location: Aleksandria
(48.6657°N, 33.1137°E)
Time: 20:22:34
(UTC+02:00)
Language:

BlueWalker 3 - Orbit

View from above orbital plane
View from above orbital plane
View from above satellite
View from above satellite

Ground track
Ground track

The orbit data is extracted from the following two-line orbital elements,

1 53807U 22111AL  24053.27598176  .00011189  00000-0  46536-3 0  9996
2 53807  53.2388   6.9645 0010487 103.9082 256.3084 15.24233827 80549
Epoch (UTC): 22 February 2024 06:37:24
Eccentricity: 0.0010487
inclination: 53.2388°
perigee height: 486 km
apogee height: 500 km
right ascension of ascending node: 6.9645°
argument of perigee: 103.9082°
revolutions per day: 15.24233827
mean anomaly at epoch: 256.3084°
orbit number at epoch: 8054

The dashed part of the orbit path shows where the satellite is in the earth's shadow,  

DLR